This demonstration page uses our WeatherBlox Daily Observations layout. Learn more.

Hourly Observations for October 21, 2019

Temp ( °F °C ) Dew Point ( °F °C ) Humidity (%) Winds ( mph kmh ) Pressure ( in mb ) Visibility ( mi km ) Precip ( " mm )
12:15 am 00:15 Cloudy 45 7 36 2.2 72 72 W 14 22 29.59 1002 10 16.09344 0 0
12:35 am 00:35 Cloudy 44 6.9 35 1.5 69 69 WNW 20 31 29.59 1002 10 16.09344 0 0
12:55 am 00:55 Mostly Cloudy 44 6.5 34 1.1 69 69 WNW 21 33 29.56 1001 10 16.09344 0 0
1:15 am 01:15 Cloudy 43 6.1 34 1 70 70 WNW 15 24 29.56 1001 10 16.09344 0 0
1:35 am 01:35 Cloudy 43 6.3 34 1.2 70 70 WNW 18 30 29.56 1001 10 16.09344 0 0
1:55 am 01:55 Cloudy 43 6 34 1.1 71 71 WNW 24 39 29.56 1001 10 16.09344 0 0
2:15 am 02:15 Mostly Cloudy 42 5.6 34 0.9 72 72 WNW 23 37 29.56 1001 10 16.09344 0 0
2:35 am 02:35 Mostly Cloudy 41 5.2 33 0.5 72 72 WNW 24 39 29.59 1002 10 16.09344 0 0
2:55 am 02:55 Cloudy 43 6 34 1 71 71 WNW 23 37 29.59 1002 10 16.09344 0 0
3:15 am 03:15 Cloudy 44 6.5 34 1 68 68 NW 29 46 29.59 1002 10 16.09344 0 0
3:35 am 03:35 Cloudy 44 6.5 34 1 68 68 NW 31 50 29.59 1002 10 16.09344 0 0
3:55 am 03:55 Cloudy 43 6.3 34 1.3 71 71 NW 22 35 29.59 1002 10 16.09344 0 0
4:15 am 04:15 Cloudy 44 6.5 35 1.5 71 71 NW 21 33 29.59 1002 10 16.09344 0 0
4:35 am 04:35 Cloudy 44 6.5 35 1.5 71 71 WNW 24 39 29.62 1003 10 16.09344 0 0
4:55 am 04:55 Cloudy 44 6.6 35 1.5 70 70 WNW 23 37 29.62 1003 10 16.09344 0 0
5:15 am 05:15 Cloudy 44 6.9 35 1.5 69 69 WNW 25 41 29.62 1003 10 16.09344 0 0
5:35 am 05:35 Cloudy 45 7 34 1.2 67 67 WNW 25 41 29.62 1003 10 16.09344 0 0
5:55 am 05:55 Cloudy 46 7.5 34 1 64 64 WNW 25 41 29.62 1003 10 16.09344 0 0
6:15 am 06:15 Cloudy 46 7.8 34 1 62 62 NW 28 44 29.62 1003 10 16.09344 0 0
6:35 am 06:35 Cloudy 46 7.8 34 1 62 62 NW 26 43 29.62 1003 10 16.09344 0 0
6:55 am 06:55 Cloudy 46 7.8 34 1 62 62 WNW 20 31 29.59 1002 10 16.09344 0 0
7:15 am 07:15 Cloudy 46 7.7 34 1.2 64 64 WNW 28 44 29.59 1002 10 16.09344 0 0
7:35 am 07:35 Cloudy 46 7.7 34 1.2 64 64 WNW 26 43 29.59 1002 10 16.09344 0 0
7:55 am 07:55 Cloudy 46 7.6 34 1.2 64 64 WNW 31 50 29.59 1002 10 16.09344 0 0
8:15 am 08:15 Cloudy 46 7.7 34 1.1 63 63 WNW 30 48 29.59 1002 10 16.09344 0 0
8:35 am 08:35 Cloudy 46 7.8 34 1.1 63 63 WNW 29 46 29.59 1002 10 16.09344 0 0
8:55 am 08:55 Cloudy 46 7.6 34 1.2 64 64 NW 32 52 29.59 1002 10 16.09344 0 0
9:15 am 09:15 Cloudy 46 7.5 34 1.1 64 64 WNW 37 59 29.59 1002 10 16.09344 0 0
9:35 am 09:35 Cloudy 45 7.2 34 1.1 66 66 NW 31 50 29.59 1002 10 16.09344 0 0
9:55 am 09:55 Cloudy 45 7 34 1.1 66 66 NW 30 48 29.62 1003 10 16.09344 0 0
10:15 am 10:15 Cloudy 45 7.2 34 1 65 65 NW 31 50 29.65 1004 10 16.09344 0 0
10:35 am 10:35 Cloudy 45 7.4 34 1.1 65 65 NW 35 56 29.65 1004 10 16.09344 0 0
10:55 am 10:55 Cloudy 45 7.2 34 1 65 65 NW 29 46 29.65 1004 10 16.09344 0 0
11:15 am 11:15 Cloudy 46 7.5 34 0.9 63 63 NW 22 35 29.68 1005 10 16.09344 0 0
11:35 am 11:35 Cloudy 46 7.6 34 0.9 63 63 NW 24 39 29.68 1005 10 16.09344 0 0
11:55 am 11:55 Cloudy 47 8.1 34 0.9 61 61 NW 28 44 29.68 1005 10 16.09344 0 0
12:15 pm 12:15 Cloudy 46 8 34 0.9 61 61 NW 22 35 29.71 1006 10 16.09344 0 0
12:35 pm 12:35 Cloudy 47 8.2 33 0.8 60 60 WNW 30 48 29.71 1006 10 16.09344 0 0
12:55 pm 12:55 Cloudy 47 8.5 34 1 60 60 NW 21 33 29.71 1006 10 16.09344 0 0
1:15 pm 13:15 Cloudy 47 8.5 34 1 60 60 NW 25 41 29.71 1006 10 16.09344 0 0
1:35 pm 13:35 Cloudy 47 8.5 34 1.1 60 60 NW 24 39 29.71 1006 10 16.09344 0 0
1:55 pm 13:55 Cloudy 48 8.9 35 1.4 60 60 NW 26 43 29.74 1007 10 16.09344 0 0
2:15 pm 14:15 Cloudy 48 8.8 35 1.5 61 61 NW 22 35 29.74 1007 10 16.09344 0 0
2:35 pm 14:35 Cloudy 48 9.1 35 1.9 61 61 NW 32 52 29.74 1007 10 16.09344 0 0
2:55 pm 14:55 Cloudy 48 9 35 1.5 60 60 NW 31 50 29.77 1008 10 16.09344 0 0
3:15 pm 15:15 Cloudy 48 9.1 35 1.8 61 61 NW 29 46 29.77 1008 10 16.09344 0 0
3:35 pm 15:35 Cloudy 48 8.9 35 1.8 61 61 NW 24 39 29.77 1008 10 16.09344 0 0
3:55 pm 15:55 Cloudy 49 9.4 35 1.7 59 59 NW 30 48 29.8 1009 10 16.09344 0 0
4:15 pm 16:15 Cloudy 48 9.1 35 1.5 59 59 NW 22 35 29.8 1009 10 16.09344 0 0
4:35 pm 16:35 Cloudy 49 9.3 33 0.6 55 55 NNW 25 41 29.8 1009 10 16.09344 0 0
4:55 pm 16:55 Cloudy 50 10.1 32 0 50 50 NW 26 43 29.8 1009 10 16.09344 0 0
5:15 pm 17:15 Cloudy 51 10.5 30 -1.3 44 44 NNW 21 33 29.77 1008 10 16.09344 0 0
5:35 pm 17:35 Cloudy 50 10.2 27 -3 40 40 NNW 29 46 29.83 1010 10 16.09344 0 0
5:55 pm 17:55 Mostly Cloudy 50 9.9 25 -4 38 38 NNW 22 35 29.83 1010 10 16.09344 0 0
6:15 pm 18:15 Partly Cloudy 49 9.4 23 -4.8 37 37 NNW 23 37 29.83 1010 10 16.09344 0 0
6:35 pm 18:35 Sunny 48 9 24 -4.3 39 39 NNW 18 30 29.85 1011 10 16.09344 0 0
6:55 pm 18:55 Partly Cloudy 47 8.5 25 -4.1 41 41 NW 13 20 29.85 1011 10 16.09344 0 0
7:15 pm 19:15 Partly Cloudy 47 8.3 25 -3.8 43 43 NW 10 17 29.88 1012 10 16.09344 0 0
7:35 pm 19:35 Clear 47 8.1 26 -3.5 44 44 NW 10 17 29.88 1012 10 16.09344 0 0
7:55 pm 19:55 Clear 45 7 26 -3.5 48 48 NW 9 15 29.94 1014 10 16.09344 0 0
8:15 pm 20:15 Clear 44 6.8 26 -3.3 49 49 WNW 12 19 29.94 1014 10 16.09344 0 0
8:35 pm 20:35 Clear 45 7.4 26 -3.6 46 46 NW 16 26 29.94 1014 10 16.09344 0 0
8:55 pm 20:55 Clear 46 7.5 25 -3.9 45 45 NW 16 26 29.94 1014 10 16.09344 0 0
9:15 pm 21:15 Clear 46 7.5 25 -4 44 44 NW 18 30 29.97 1015 10 16.09344 0 0
9:35 pm 21:35 Clear 45 7 25 -4 46 46 WNW 13 20 29.94 1014 10 16.09344 0 0
9:55 pm 21:55 Clear 44 6.5 25 -3.8 48 48 WNW 13 20 29.97 1015 10 16.09344 0 0
10:15 pm 22:15 Clear 43 6.2 25 -3.7 49 49 WNW 10 17 29.97 1015 10 16.09344 0 0
10:35 pm 22:35 Clear 42 5.7 26 -3.5 52 52 WNW 10 17 29.97 1015 10 16.09344 0 0
10:55 pm 22:55 Clear 41 5.2 26 -3.3 55 55 W 8 13 30 1016 10 16.09344 0 0
11:15 pm 23:15 Clear 40 4.2 26 -3.6 57 57 W 9 15 30.03 1017 10 16.09344 0 0
11:35 pm 23:35 Clear 39 3.9 26 -3.3 60 60 W 10 17 30.03 1017 10 16.09344 0 0
11:55 pm 23:55 Clear 39 3.9 26 -3.2 60 60 W 9 15 30.03 1017 10 16.09344 0 0

Powered by AerisWeather